Location: Turtle Rock Observatory
(36.6913°N, 81.9708°W)
Time: 22:20:52
(UTC-04:00)

TITAN 4B R/B - Visible Passes

Search period start: 20 August 2014 00:00
Search period end: 30 August 2014 00:00
Orbit: 472 x 659 km, 57.0° (Epoch: 19 August)

Date Brightness Start Highest point End Pass type
(mag) Time Alt. Az. Time Alt. Az. Time Alt. Az.
20 Aug 4.5 03:28:02 10° N 03:30:51 15° NNE 03:33:36 10° ENE visible
20 Aug 1.7 05:06:28 10° NW 05:11:11 77° NE 05:15:40 10° SE visible
20 Aug 1.5 20:41:40 10° SSW 20:46:07 73° SE 20:50:48 10° NE visible
20 Aug 4.3 22:22:51 10° W 22:26:11 19° NNW 22:29:37 10° NNE visible
21 Aug 4.1 03:27:28 10° NNW 03:30:57 20° NNE 03:34:21 10° E visible
21 Aug 1.4 05:06:19 10° NW 05:11:00 71° SW 05:15:27 10° SSE visible
21 Aug 1.9 20:41:29 10° SW 20:45:56 75° NW 20:50:38 10° NE visible
21 Aug 4.6 22:23:37 10° WNW 22:26:18 15° NNW 22:29:01 10° N visible
22 Aug 3.7 03:27:00 10° NNW 03:32:36 22° ENE 03:34:53 10° E visible
22 Aug 1.8 05:09:44 39° W 05:10:46 46° SW 05:15:03 10° SSE visible
22 Aug 2.6 20:41:28 10° WSW 20:45:49 50° NW 20:50:24 10° NNE visible
22 Aug 4.7 22:24:43 10° NW 22:26:27 12° NNW 22:28:11 10° N visible
23 Aug 3.4 20:41:37 10° WSW 20:45:45 35° NW 20:50:04 10° NNE visible
24 Aug 3.9 20:41:57 10° W 20:45:44 26° NW 20:49:40 10° NNE visible
25 Aug 4.3 20:42:28 10° W 20:45:46 19° NNW 20:49:11 10° NNE visible
26 Aug 4.4 20:43:12 10° WNW 20:45:51 15° NNW 20:48:34 10° N visible
27 Aug 4.5 20:44:17 10° NW 20:45:59 12° NNW 20:47:43 10° N visible
